Location: Beaver Brook Station
(42.3793°N, 71.2203°W)
Time: 02:13:47
(UTC+00:00)

CSL-04 Rocket - Pass Details

Date: 29 October 2020
Orbit: 805 x 861 km, 98.9° (Epoch: 25 November)

Event Time Altitude Azimuth Distance (km) Brightness Sun altitude
Exits shadow 23:39:12 - 160° (SSE) 2,547 6.0 -22.3°
Reaches altitude 10° 23:39:21 10° 160° (SSE) 2,488 5.9 -22.3°
Maximum altitude 23:44:53 80° 75° (ENE) 873 3.6 -23.3°
Drops below altitude 10° 23:50:24 10° 348° (NNW) 2,483 6.3 -24.3°
Sets 23:52:46 0° 348° (NNW) 3,415 7.1 -24.8°
